This is the latest recevied weather packets stored in our database for station/object WE1C. If no packets are shown the sender has not sent any weather packets the latest 10 day(s).
| Time | Temp. | Humidity | Pressure | Rain* | Wind** | Luminosity | Snow |
|---|---|---|---|---|---|---|---|
| 1777811783 | 5.56° C | 74% | 1036.3 hPa | 0 mm | - | 178 W/m² | - |
| 1777811479 | 6.11° C | 74% | 1035.9 hPa | 0 mm | - | 128 W/m² | - |
| 1777811175 | 5.56° C | 74% | 1036.1 hPa | 0 mm | - | 165 W/m² | - |
| 1777810873 | 5.56° C | 74% | 1036.1 hPa | 0 mm | - | 152 W/m² | - |
| 1777810569 | 5.56° C | 73% | 1035.9 hPa | 0 mm | - | 162 W/m² | - |
| 1777810266 | 5.56° C | 73% | 1036.1 hPa | 0 mm | - | 178 W/m² | - |
| 1777809962 | 5.56° C | 74% | 1036.1 hPa | 0 mm | - | 209 W/m² | - |
| 1777809660 | 5.56° C | 74% | 1036.2 hPa | 0 mm | - | 145 W/m² | - |
| 1777809358 | 5.56° C | 74% | 1036.3 hPa | 0 mm | - | 173 W/m² | - |
| 1777809055 | 5.56° C | 74% | 1036.2 hPa | 0 mm | - | 172 W/m² | - |
| 1777808753 | 5.56° C | 75% | 1036.1 hPa | 0 mm | - | 127 W/m² | - |
| 1777808449 | 5.56° C | 74% | 1036.2 hPa | 0 mm | - | 120 W/m² | - |
| 1777808147 | 5.56° C | 73% | 1036.5 hPa | 0 mm | - | 152 W/m² | - |
| 1777807845 | 5.56° C | 74% | 1036.4 hPa | 0 mm | - | 100 W/m² | - |
| 1777807543 | 5° C | 73% | 1036.3 hPa | 0 mm | - | 93 W/m² | - |
| 1777807238 | 5° C | 75% | 1036.3 hPa | 0 mm | - | 82 W/m² | - |
| 1777806936 | 5° C | 74% | 1036.2 hPa | 0 mm | - | 68 W/m² | - |
| 1777806632 | 4.44° C | 75% | 1036.1 hPa | 0 mm | - | 65 W/m² | - |
| 1777806327 | 3.89° C | 76% | 1036.1 hPa | 0 mm | - | 54 W/m² | - |
| 1777806025 | 3.33° C | 77% | 1036.3 hPa | 0 mm | - | 47 W/m² | - |
| 1777805721 | 3.33° C | 77% | 1036.2 hPa | 0 mm | - | 42 W/m² | - |
| 1777805419 | 2.78° C | 79% | 1036.4 hPa | 0 mm | - | 39 W/m² | - |
| 1777805117 | 2.78° C | 80% | 1036.3 hPa | 0 mm | - | 36 W/m² | - |
| 1777804814 | 2.78° C | 80% | 1036.2 hPa | 0 mm | - | 31 W/m² | - |
| 1777804512 | 2.22° C | 80% | 1036.4 hPa | 0 mm | - | 25 W/m² | - |
* Rain latest hour (hover to see other rain measurements)
** Current wind speed in m/s (hover to see current wind gust speed)